[[{"header":{"parameterUnit":"m.s-1","parameterCategory":1,"la1":30.2991,"la2":30.254,"lo1":-89.0895,"lo2":-89.0444,"dy":0.0017,"dx":0.0017,"nx":28,"ny":28,"refTime":"2025-07-14T03:00:00:Z","depth":0,"parameterNumber":2,"parameterNumberName":"U-component_of_WINDS"},"data":[0,0,0,0,0,0,0,0,0,0,0,0,0,0,0,0,0,0,0,0,0,0,0,0,0,0,0,0,0,0,0,0,0,0,0,0,0,0,0,0,0,0,0,0,0,0,0,0,0,0,0,0,0,0,0,0,0,0,2.3142,2.3142,0,2.3141,2.3141,2.3141,2.3065,2.3063,2.3061,2.3059,2.3058,2.306,2.3061,0,0,0,0,0,0,0,0,0,0,0,0,0,2.3081,2.3083,2.3142,2.3142,2.3142,2.3141,2.3141,2.3141,2.3065,2.3063,2.306,2.3058,2.3057,2.3059,2.3062,0,0,0,0,0,0,0,0,0,0,0,0,0,2.3097,2.3083,2.3142,2.3104,2.3101,2.3141,2.3141,2.3141,2.3066,2.3063,2.306,2.3057,2.3057,2.3059,2.3062,2.3138,0,0,2.307,2.3071,0,0,0,0,0,0,0,0,2.3096,2.3099,2.311,2.3107,2.3103,2.31,2.3119,2.314,2.3066,2.3079,2.3059,2.3056,2.3074,2.3075,2.3082,2.3138,2.3138,2.307,2.3072,2.3073,2.3074,0,0,0,0,0,0,0,2.3095,2.3099,2.3142,2.311,2.3106,2.3088,2.3087,2.3122,2.3093,2.3078,2.3072,2.3073,2.3072,2.3079,2.3081,2.3138,2.307,2.3073,2.3074,2.3075,2.3259,2.3262,0,0,0,0,0,0,2.3099,2.3098,2.3142,2.3142,2.3092,2.3092,2.309,2.3104,2.3093,2.3088,2.3076,2.307,2.3076,2.3078,2.3081,2.317,2.3073,2.3076,2.3077,2.3256,2.326,2.3263,0,0,0,0,0,0,2.3098,2.3104,2.3142,2.3118,2.3122,2.3096,2.3112,2.3106,2.3113,2.3091,2.3086,2.3088,2.3074,2.3077,2.3125,2.3169,2.3077,2.3079,2.3252,2.3257,2.3261,2.335,0,0,0,0,0,0,2.3097,2.3104,2.3132,2.312,2.3123,2.3185,2.3114,2.3108,2.3118,2.311,2.3102,2.3097,2.3072,2.3121,2.3128,2.3171,2.3082,2.3248,2.3254,2.326,2.3343,2.3357,2.3369,0,0,0,0,0,2.3095,2.3156,2.3133,2.3139,2.3158,2.3188,2.319,2.3159,2.3121,2.315,2.3136,2.3098,2.3163,2.3127,2.3133,2.3178,2.3245,2.3252,2.3259,2.3337,2.3354,2.3369,0,0,0,0,0,0,2.3173,2.3154,2.3128,2.3188,2.319,2.3175,2.321,2.3178,2.3192,2.3184,2.3145,2.3144,2.3198,2.3193,2.3152,2.3253,2.3197,2.3206,2.3254,2.327,2.3283,2.3283,2.3084,0,0,0,0,0,2.3198,2.3223,2.3205,2.3259,2.3262,2.3236,2.3248,2.3224,2.3225,2.3226,2.3216,2.3219,2.324,2.3255,2.3273,2.3342,2.334,2.3376,2.339,2.3401,2.3409,2.3446,2.3463,2.3287,2.3287,2.3287,0,0,2.3248,2.324,2.3259,2.3275,2.3274,2.3303,2.3237,2.3269,2.3291,2.3231,2.3276,2.3269,2.327,2.3329,2.3354,2.3326,2.3457,2.341,2.3419,2.3421,2.3456,2.3472,2.3487,2.3292,2.3291,2.329,0,0,2.3354,2.335,2.3396,2.3397,2.3397,2.338,2.3391,2.3382,2.3375,2.342,2.3376,2.3401,2.3438,2.3441,2.3447,2.3558,2.3524,2.3565,2.3635,2.3672,2.3686,2.3698,2.3739,2.3753,2.3574,2.3574,2.3574,0,2.3416,2.3457,2.3423,2.3459,2.3469,2.3417,2.3463,2.3466,2.3472,2.348,2.3449,2.3496,2.3492,2.3553,2.358,2.3586,2.3599,2.3566,2.3686,2.3698,2.3709,2.3747,2.3763,2.3579,2.3578,2.3578,2.3577,0,2.3534,2.3564,2.3601,2.3609,2.3622,2.3663,2.3637,2.3655,2.3631,2.3617,2.3665,2.3659,2.3677,2.3689,2.3665,2.3747,2.373,2.3693,2.3637,2.3732,2.3767,2.3781,2.3586,2.3585,2.3583,2.3582,0,0,2.3688,2.3679,2.3693,2.3697,2.3695,2.3717,2.3757,2.3774,2.3791,2.3798,2.3831,2.3865,2.3832,2.384,2.3816,2.3849,2.3939,2.3808,2.3808,2.3833,2.403,2.4058,2.4075,2.3916,2.3919,2.3921,2.403,0,2.3791,2.3858,2.3831,2.3901,2.3928,2.3881,2.3916,2.3919,2.3908,2.3931,2.3919,2.3944,2.3898,2.3902,2.3933,2.3921,2.3978,2.3913,2.3947,2.3949,2.3949,2.4093,2.4122,2.4226,2.4044,2.4046,2.4048,0,2.392,2.3934,2.4007,2.4002,2.4012,2.4044,2.4059,2.4081,2.4084,2.4074,2.4084,2.4054,2.4094,2.4039,2.4094,2.4051,2.4063,2.406,2.4064,2.4066,2.4004,2.41,2.4257,2.4273,2.4069,2.4067,2.4066,0,2.4027,2.4063,2.4112,2.4116,2.4111,2.4135,2.4134,2.4135,2.4148,2.4161,2.417,2.4188,2.4198,2.4213,2.4189,2.4151,2.4248,2.419,2.4242,2.4243,2.4264,2.4263,2.4427,2.4272,2.4272,2.4272,2.4271,0,2.4145,2.4192,2.416,2.419,2.4241,2.421,2.4262,2.4256,2.4258,2.4286,2.4246,2.4275,2.4241,2.4267,2.4248,2.4298,2.4302,2.4296,2.4291,2.43,2.4301,2.4308,2.43,2.4276,2.4275,2.4274,2.4273,0,2.4272,2.4252,2.4302,2.4294,2.4294,2.4332,2.4326,2.4354,2.4341,2.4379,2.4386,2.4366,2.4394,2.4372,2.4399,2.4387,2.4453,2.4437,2.4452,2.4448,2.4501,2.4497,2.4674,2.4697,2.4528,2.4529,2.4531,0,2.4349,2.4384,2.438,2.4397,2.4399,2.4426,2.444,2.4411,2.4427,2.4435,2.4463,2.4488,2.4506,2.4553,2.4542,2.4563,2.4548,2.4609,2.4551,2.4559,2.455,2.4548,2.4552,2.4621,2.4623,2.4624,2.4625,0,2.4488,2.4477,2.4498,2.4517,2.4535,2.4548,2.4558,2.4574,2.4546,2.4566,2.4594,2.4609,2.4638,2.4663,2.4681,2.468,2.4649,2.4644,2.4657,2.4667,2.4675,2.4672,2.4485,2.464,2.4639,2.4637,2.4637,2.4636,2.4592,2.4622,2.4625,2.4651,2.4656,2.4667,2.4694,2.4686,2.4709,2.473,2.4712,2.4747,2.4752,2.4772,2.4776,2.4803,2.4778,2.4797,2.4802,2.4807,2.4815,2.4671,2.4806,2.4806,2.4806,2.4805,2.4805,0,2.473,2.473,2.4755,2.4771,2.4792,2.4761,2.4771,2.4791,2.4822,2.4829,2.4849,2.4883,2.4908,2.49,2.4922,2.4946,2.4932,2.4953,2.4951,2.4952,2.4836,2.4823,2.4964,2.4964,2.4964,2.4964,2.4964,2.4964,2.4804,2.4854,2.4844,2.4896,2.4896,2.493,2.4939,2.495,2.4955,2.4995,2.5016,2.5011,2.5012,2.5035,2.5058,2.5055,2.5065,2.5092,2.5084,2.4975,2.496,2.4945,2.4932,2.5094,2.5094,2.5197,2.5198,2.5199]},{"header":{"parameterUnit":"m.s-1","parameterCategory":1,"la1":30.2991,"la2":30.254,"lo1":-89.0895,"lo2":-89.0444,"dy":0.0017,"dx":0.0017,"nx":28,"ny":28,"refTime":"2025-07-14T03:00:00:Z","depth":0,"parameterNumber":3,"parameterNumberName":"V-component_of_WINDS"},"data":[0,0,0,0,0,0,0,0,0,0,0,0,0,0,0,0,0,0,0,0,0,0,0,0,0,0,0,0,0,0,0,0,0,0,0,0,0,0,0,0,0,0,0,0,0,0,0,0,0,0,0,0,0,0,0,0,0,0,-2.899,-2.8992,0,-2.911,-2.9112,-2.9113,-2.9107,-2.9105,-2.9104,-2.9102,-2.9224,-2.9229,-2.9233,0,0,0,0,0,0,0,0,0,0,0,0,0,-2.8757,-2.8761,-2.899,-2.8992,-2.8993,-2.911,-2.9112,-2.9113,-2.9107,-2.9105,-2.9103,-2.9101,-2.9222,-2.9228,-2.9234,0,0,0,0,0,0,0,0,0,0,0,0,0,-2.8865,-2.8762,-2.899,-2.9004,-2.9007,-2.911,-2.9112,-2.9114,-2.9108,-2.9105,-2.9103,-2.91,-2.922,-2.9227,-2.9235,-2.9331,0,0,-2.9257,-2.926,0,0,0,0,0,0,0,0,-2.8859,-2.8874,-2.9001,-2.9004,-2.9007,-2.9091,-2.9074,-2.9186,-2.9108,-2.9069,-2.9102,-2.9099,-2.9182,-2.9192,-2.922,-2.9336,-2.9342,-2.9257,-2.9262,-2.9265,-2.9267,0,0,0,0,0,0,0,-2.8852,-2.8869,-2.9038,-2.9003,-2.9006,-2.9005,-2.9018,-2.9095,-2.9138,-2.9073,-2.9073,-2.9087,-2.9183,-2.9213,-2.9223,-2.9343,-2.9257,-2.9264,-2.9268,-2.9271,-2.9546,-2.9549,0,0,0,0,0,0,-2.8841,-2.8863,-2.9034,-2.9041,-2.8925,-2.9011,-2.9025,-2.9067,-2.9138,-2.9146,-2.9089,-2.9086,-2.9202,-2.9214,-2.9227,-2.9345,-2.9265,-2.9272,-2.9276,-2.9543,-2.9546,-2.955,0,0,0,0,0,0,-2.8836,-2.8856,-2.9029,-2.8952,-2.8974,-2.9018,-2.9064,-2.907,-2.91,-2.915,-2.9158,-2.9112,-2.92,-2.9217,-2.9305,-2.9349,-2.9275,-2.9282,-2.9539,-2.9544,-2.9548,-2.9581,0,0,0,0,0,0,-2.8829,-2.8855,-2.8891,-2.8953,-2.8978,-2.9105,-2.9067,-2.9074,-2.9113,-2.9111,-2.9173,-2.9181,-2.92,-2.9295,-2.9313,-2.9358,-2.9287,-2.9536,-2.9541,-2.9547,-2.9576,-2.9586,-2.9594,0,0,0,0,0,-2.8821,-2.8895,-2.8893,-2.8914,-2.9025,-2.9108,-2.9122,-2.9142,-2.9117,-2.9154,-2.9186,-2.9179,-2.9342,-2.9304,-2.9324,-2.9372,-2.9533,-2.954,-2.9546,-2.9572,-2.9584,-2.9594,0,0,0,0,0,0,-2.8837,-2.8904,-2.8902,-2.8998,-2.9048,-2.9107,-2.9154,-2.9154,-2.9211,-2.9206,-2.9228,-2.9242,-2.9331,-2.936,-2.9317,-2.9469,-2.9434,-2.9445,-2.9447,-2.9459,-2.9467,-2.9458,-2.9293,0,0,0,0,0,-2.8852,-2.8914,-2.8968,-2.9048,-2.9073,-2.911,-2.9146,-2.9158,-2.9209,-2.923,-2.9268,-2.9318,-2.9381,-2.9421,-2.9481,-2.9581,-2.9595,-2.9624,-2.9633,-2.964,-2.9649,-2.9705,-2.9719,-2.9571,-2.9571,-2.9571,0,0,-2.8883,-2.8927,-2.8965,-2.9053,-2.9092,-2.9156,-2.9127,-2.9195,-2.9243,-2.924,-2.9326,-2.9356,-2.9414,-2.9508,-2.9552,-2.9536,-2.9693,-2.9649,-2.9654,-2.9659,-2.9713,-2.9727,-2.9739,-2.9576,-2.9575,-2.9574,0,0,-2.8972,-2.9012,-2.9083,-2.9123,-2.9184,-2.9208,-2.9225,-2.9285,-2.9305,-2.9392,-2.9391,-2.9448,-2.9555,-2.9596,-2.9631,-2.9739,-2.9735,-2.9757,-2.9805,-2.9859,-2.987,-2.9881,-2.992,-2.9933,-2.9766,-2.9767,-2.9767,0,-2.9003,-2.9099,-2.912,-2.9189,-2.9228,-2.9229,-2.9302,-2.934,-2.9417,-2.9444,-2.9425,-2.956,-2.9599,-2.9703,-2.973,-2.9758,-2.9779,-2.975,-2.9867,-2.9878,-2.9888,-2.9925,-2.9939,-2.9769,-2.9769,-2.9768,-2.9768,0,-2.9135,-2.9201,-2.9252,-2.9327,-2.9371,-2.9442,-2.9473,-2.9516,-2.9524,-2.955,-2.9639,-2.9686,-2.9757,-2.9782,-2.979,-2.9889,-2.9877,-2.9862,-2.9827,-2.9904,-2.9939,-2.9954,-2.9772,-2.9772,-2.9771,-2.977,0,0,-2.9236,-2.9323,-2.9341,-2.9375,-2.9443,-2.9495,-2.9566,-2.9635,-2.9672,-2.9725,-2.9786,-2.9877,-2.9864,-2.9904,-2.9917,-2.9964,-3.0047,-2.9944,-2.9946,-2.9962,-3.016,-3.017,-3.0186,-3.0045,-3.0048,-3.005,-3.0155,0,-2.9332,-2.9459,-2.948,-2.9591,-2.9653,-2.9656,-2.9718,-2.9766,-2.9793,-2.985,-2.988,-2.9944,-2.9922,-2.9947,-2.9994,-3.0027,-3.0087,-3.002,-3.0102,-3.0105,-3.0087,-3.0205,-3.0216,-3.0312,-3.0169,-3.0171,-3.0173,0,-2.9461,-2.9519,-2.9636,-2.9696,-2.9723,-2.9779,-2.9845,-2.9899,-2.9954,-2.997,-3.0016,-3.0024,-3.0098,-3.006,-3.0164,-3.0117,-3.0152,-3.0174,-3.0178,-3.0186,-3.0143,-3.0216,-3.0343,-3.0358,-3.0195,-3.0193,-3.0191,0,-2.9524,-2.9631,-2.9715,-2.9744,-2.9817,-2.9856,-2.9888,-2.9941,-2.9981,-3.0039,-3.0066,-3.0131,-3.0167,-3.0218,-3.0243,-3.0213,-3.0345,-3.0309,-3.0361,-3.036,-3.0388,-3.0386,-3.0523,-3.0411,-3.041,-3.041,-3.041,0,-2.9629,-2.9701,-2.9744,-2.9796,-2.9877,-2.9901,-2.998,-3.0011,-3.0059,-3.0117,-3.0123,-3.0178,-3.0208,-3.0267,-3.0288,-3.037,-3.0386,-3.0402,-3.0406,-3.0401,-3.04,-3.0424,-3.0418,-3.0414,-3.0413,-3.0412,-3.0412,0,-2.9713,-2.9745,-2.9837,-2.9898,-2.9915,-2.9972,-3.0025,-3.0076,-3.0103,-3.0177,-3.0195,-3.0238,-3.0308,-3.0339,-3.0425,-3.0438,-3.0533,-3.0533,-3.0515,-3.0516,-3.0567,-3.0562,-3.0724,-3.0747,-3.062,-3.0621,-3.0622,0,-2.9778,-2.9833,-2.9901,-2.9941,-2.9974,-3.0037,-3.0079,-3.0106,-3.0149,-3.0217,-3.026,-3.0331,-3.0388,-3.05,-3.0539,-3.0605,-3.0607,-3.0659,-3.0616,-3.061,-3.0608,-3.0604,-3.061,-3.0667,-3.0668,-3.0669,-3.067,0,-2.989,-2.9903,-2.9963,-3.003,-3.008,-3.0133,-3.0186,-3.0218,-3.0253,-3.0301,-3.0373,-3.0418,-3.0507,-3.0577,-3.0646,-3.0679,-3.0681,-3.0683,-3.0699,-3.0694,-3.0681,-3.0689,-3.0536,-3.0679,-3.0678,-3.0677,-3.0677,-3.0676,-2.9966,-3.0016,-3.0072,-3.0139,-3.0182,-3.0231,-3.0282,-3.0316,-3.0377,-3.0451,-3.0463,-3.054,-3.0596,-3.0689,-3.0725,-3.0786,-3.0773,-3.0795,-3.0801,-3.0806,-3.0809,-3.0672,-3.0798,-3.0798,-3.0798,-3.0798,-3.0797,0,-3.0079,-3.0115,-3.0177,-3.0251,-3.0304,-3.0301,-3.036,-3.0404,-3.0472,-3.0524,-3.0581,-3.0665,-3.0733,-3.0778,-3.0847,-3.0888,-3.089,-3.0905,-3.0902,-3.091,-3.0817,-3.0796,-3.0902,-3.0902,-3.0902,-3.0902,-3.0902,-3.0902,-3.0144,-3.0228,-3.0249,-3.0355,-3.0391,-3.0467,-3.05,-3.0546,-3.0587,-3.0681,-3.0738,-3.0767,-3.0816,-3.0889,-3.0952,-3.0964,-3.0989,-3.1005,-3.1016,-3.0927,-3.0916,-3.0906,-3.0887,-3.101,-3.101,-3.1104,-3.1105,-3.1106]}]]